Retour au catalogue

CZ-6A DEB

ActifPO
NORAD 61455·DEBRIS·🇨🇳 China

Lancé Aug 6, 2024 depuis Taiyuan Satellite Launch Center

Loading…

Prochains Passages (prochaines 24 heures)

TLE

FraisSource: Space-Track

Époque: Sep 14, 2026, 07:03 UTC

1 61455U 24140ZM  26257.29389977  .00013860  00000-0  78151-3 0  9991
2 61455  90.2772  19.0422 0168468 138.3454 223.0758 15.01724980111400

Suivez CZ-6A DEB en temps réel avec AllMySat

Download on the App Store